Vorticity
6 10 9 9 7 5 5 8 7 7 6 7 6 5 3 2 2 3 3 5 8 13 8 7 7 6 6 7 7 7 7 6 6 7 7 6 6 6 6 6 6 6 6
8 14 9 5 4 5 4 5 8 7 6 7 5 5 3 3 3 3 4 7 11 12 7 7 7 6 7 7 7 7 7 7 7 7 7 6 7 6 6 6 6 6 6
1 -5 12 11 4 5 8 9 7 4 7 6 6 5 4 3 4 3 5 8 14 9 6 7 6 6 7 6 6 6 6 6 6 7 6 8 6 7 7 7 6 7 6
-22 -0 5 11 11 6 8 9 9 8 7 8 5 5 4 3 3 5 7 11 11 7 6 8 5 7 6 6 6 6 7 6 6 7 7 7 7 7 8 8 7 7 7
5 -10 -2 -4 15 11 8 9 9 9 7 5 5 5 5 5 6 7 9 12 9 7 7 6 6 5 6 6 5 5 5 6 6 6 7 7 7 7 8 7 8 9 6
20 -1 -3 2 2 6 5 4 5 5 4 4 6 7 6 6 7 9 10 9 8 7 6 6 5 7 3 2 4 4 4 6 6 7 6 6 7 7 8 9 8 6 5
8 13 18 15 9 1 3 3 4 6 6 4 8 8 7 9 9 10 10 8 8 7 6 6 6 2 3 3 3 5 6 7 8 8 7 7 7 8 8 8 8 8 5
4 -3 15 11 3 -4 4 4 5 5 5 4 9 8 10 12 11 9 9 8 8 6 6 4 2 2 3 4 4 4 7 8 8 8 8 7 7 7 7 7 8 9 8
21 0 1 -6 5 3 6 6 5 4 4 8 10 11 12 11 9 9 9 10 7 5 3 2 2 3 4 4 4 7 8 10 9 8 8 8 7 7 7 7 8 8 9
16 17 20 10 7 8 8 7 4 5 8 13 12 13 13 12 11 8 8 5 3 3 3 3 4 5 4 5 8 11 11 10 9 9 8 8 8 8 8 8 7 5 3
26 12 9 17 12 12 11 7 7 12 15 13 13 14 12 9 7 7 5 4 4 4 3 4 4 5 9 11 13 13 12 11 10 10 11 11 11 8 5 4 3 4 4
15 17 13 11 11 11 10 11 17 14 11 13 13 10 8 8 8 5 4 5 4 4 4 4 9 13 16 16 15 14 13 11 8 5 3 3 4 5 5 5 5 5 6
12 14 18 17 16 16 17 17 13 12 14 13 11 10 10 8 5 5 4 4 5 4 9 15 17 14 10 8 6 5 5 6 6 6 6 5 4 5 5 6 7 7 7
13 13 13 12 14 12 10 13 16 13 11 11 10 8 6 5 3 4 4 6 8 16 15 12 9 8 7 7 8 8 6 5 5 5 6 7 7 7 7 7 8 8 8
28 12 11 9 9 13 16 12 14 12 9 7 6 4 3 3 5 7 8 13 14 12 10 8 8 8 8 6 4 5 6 6 7 7 7 8 9 10 9 9 8 8 10
33 11 10 18 19 17 15 12 7 7 5 4 4 5 6 8 9 10 12 11 9 8 7 7 7 4 4 6 5 6 6 5 6 7 7 7 7 7 9 11 13 14 15
8 8 17 20 13 12 9 7 5 5 5 6 6 7 8 8 9 11 10 9 8 7 6 5 5 6 5 6 5 5 7 6 7 8 8 10 12 13 14 14 14 14 14
8 13 20 5 5 5 5 5 4 5 5 6 7 7 8 9 9 9 8 7 6 5 4 6 5 5 4 6 7 5 7 7 9 13 15 15 15 15 15 16 15 14 13
14 7 11 19 12 7 7 6 3 5 7 6 7 7 7 9 9 8 7 6 3 6 5 5 5 5 6 5 6 6 8 12 14 14 14 15 18 18 16 13 12 11 11
16 18 17 8 6 9 8 -0 4 7 7 7 7 8 9 9 8 7 6 3 7 5 5 5 6 5 5 5 7 11 12 14 18 22 21 18 14 12 10 11 13 12 14
15 9 11 10 10 9 5 1 4 6 7 7 9 9 8 8 7 5 4 8 6 5 6 5 5 6 7 11 14 16 17 18 16 14 12 10 10 14 14 9 13 17 19
10 7 10 8 10 9 1 5 6 5 4 7 8 8 7 6 7 9 10 7 4 4 4 5 6 10 14 16 18 17 13 10 9 9 10 14 16 7 14 13 17 18 18
9 8 7 9 10 -2 6 8 7 8 6 5 6 7 9 10 13 11 7 4 4 0 6 9 13 14 18 18 12 9 8 10 13 16 18 12 10 11 13 13 14 12 11
11 9 8 10 -1 2 8 9 8 7 5 6 9 9 12 15 10 7 6 3 4 8 12 14 16 17 15 9 9 12 16 21 22 20 9 12 11 10 9 9 9 8 7
14 10 7 0 2 6 12 7 8 8 10 10 6 17 16 8 6 4 4 8 12 14 15 15 14 10 10 13 19 24 21 14 8 9 10 9 9 11 10 10 10 10 11
8 -0 -3 3 -1 15 12 12 12 9 9 16 19 10 6 3 3 7 11 14 15 14 13 10 9 11 18 23 14 7 7 9 10 11 11 10 9 9 9 9 9 10 10
Height
3111 3113 3115 3117 3120 3121 3125 3128 3130 3132 3135 3137 3139 3140 3142 3142 3143 3142 3142 3142 3142 3141 3140 3141 3141 3141 3140 3139 3139 3138 3136 3135 3134 3133 3131 3130 3129 3128 3127 3125 3124 3122 3120
3104 3108 3110 3112 3114 3117 3120 3122 3125 3127 3130 3132 3134 3135 3137 3138 3138 3137 3138 3139 3138 3137 3137 3138 3138 3138 3137 3137 3136 3136 3135 3133 3132 3131 3129 3128 3128 3126 3125 3123 3121 3120 3119
3098 3102 3105 3108 3110 3112 3114 3116 3120 3122 3125 3127 3129 3130 3132 3133 3133 3133 3134 3135 3134 3134 3134 3134 3135 3135 3134 3134 3133 3133 3132 3131 3130 3128 3128 3125 3124 3123 3122 3120 3119 3117 3116
3092 3096 3099 3102 3105 3108 3110 3112 3115 3117 3120 3121 3123 3125 3127 3127 3128 3129 3130 3130 3130 3130 3130 3131 3132 3132 3131 3131 3130 3129 3128 3127 3126 3125 3124 3122 3121 3120 3119 3117 3116 3114 3113
3087 3091 3092 3097 3100 3103 3106 3108 3110 3112 3114 3116 3118 3119 3121 3122 3123 3124 3124 3125 3125 3126 3126 3127 3128 3128 3127 3127 3126 3125 3124 3123 3122 3120 3119 3118 3116 3115 3115 3113 3112 3110 3110
3078 3082 3085 3089 3094 3097 3099 3101 3103 3106 3108 3111 3112 3114 3115 3116 3117 3118 3119 3119 3120 3121 3122 3123 3123 3123 3123 3122 3122 3121 3119 3118 3117 3115 3114 3112 3111 3109 3108 3108 3108 3108 3105
3068 3073 3077 3082 3087 3089 3091 3094 3097 3100 3102 3104 3106 3107 3108 3110 3111 3112 3113 3114 3115 3117 3118 3118 3119 3119 3119 3118 3117 3115 3114 3113 3111 3110 3108 3107 3105 3104 3102 3101 3100 3100 3101
3059 3063 3069 3073 3078 3082 3085 3087 3090 3093 3095 3097 3098 3100 3102 3103 3105 3106 3108 3110 3111 3112 3113 3114 3114 3114 3113 3112 3111 3109 3108 3106 3105 3104 3103 3101 3099 3098 3096 3094 3093 3092 3092
3049 3054 3059 3064 3069 3074 3077 3080 3083 3085 3088 3090 3091 3093 3095 3097 3099 3101 3104 3105 3106 3107 3108 3108 3108 3108 3107 3106 3105 3103 3101 3100 3099 3098 3097 3095 3093 3091 3089 3087 3085 3083 3081
3041 3047 3051 3055 3060 3065 3068 3072 3075 3078 3081 3083 3085 3087 3089 3092 3094 3097 3098 3099 3100 3101 3102 3103 3102 3102 3101 3099 3098 3096 3095 3093 3092 3091 3090 3089 3087 3085 3082 3081 3078 3075 3071
3033 3039 3043 3048 3053 3057 3061 3065 3068 3071 3074 3076 3079 3081 3084 3087 3089 3091 3092 3094 3095 3096 3097 3096 3096 3095 3093 3092 3090 3089 3088 3087 3086 3085 3083 3082 3081 3078 3076 3073 3071 3068 3062
3027 3030 3035 3039 3044 3049 3053 3057 3060 3063 3067 3070 3073 3076 3079 3081 3083 3085 3087 3088 3090 3090 3090 3089 3088 3087 3085 3084 3084 3083 3082 3081 3080 3079 3077 3075 3073 3071 3068 3065 3062 3059 3054
3023 3025 3028 3032 3037 3042 3046 3050 3054 3057 3060 3064 3067 3071 3073 3076 3078 3080 3082 3083 3083 3083 3082 3081 3080 3080 3079 3079 3078 3077 3076 3075 3073 3071 3069 3066 3064 3062 3058 3055 3051 3047 3044
3018 3021 3024 3027 3032 3035 3040 3044 3048 3051 3055 3059 3062 3066 3068 3071 3073 3074 3075 3075 3076 3075 3075 3075 3075 3074 3074 3073 3072 3070 3069 3067 3065 3062 3059 3056 3053 3050 3047 3043 3039 3035 3031
3010 3016 3019 3023 3026 3029 3033 3038 3043 3046 3050 3054 3058 3060 3063 3065 3066 3067 3068 3069 3069 3069 3069 3069 3068 3068 3067 3065 3064 3062 3060 3058 3056 3052 3049 3045 3042 3038 3034 3030 3027 3022 3017
3004 3009 3013 3017 3021 3027 3031 3035 3039 3042 3046 3049 3052 3055 3057 3059 3060 3061 3061 3062 3062 3062 3062 3062 3061 3060 3059 3057 3055 3053 3051 3048 3045 3043 3040 3035 3031 3026 3022 3017 3012 3007 3003
3000 3003 3009 3013 3017 3021 3026 3031 3035 3038 3041 3044 3046 3049 3051 3052 3053 3054 3055 3055 3055 3055 3055 3055 3054 3052 3050 3048 3046 3043 3040 3037 3034 3030 3026 3023 3018 3013 3008 3005 3000 2995 2991
2997 3002 3005 3008 3013 3017 3022 3026 3029 3033 3036 3039 3041 3043 3044 3045 3046 3047 3048 3048 3049 3049 3048 3047 3046 3044 3042 3039 3036 3033 3029 3025 3021 3017 3012 3007 3004 3001 2996 2991 2988 2984 2981
2991 2994 3000 3004 3008 3012 3016 3020 3024 3027 3030 3032 3034 3036 3038 3038 3040 3041 3041 3042 3042 3042 3041 3039 3037 3036 3033 3030 3026 3021 3017 3013 3009 3005 3000 2994 2990 2987 2984 2979 2975 2972 2970
2984 2988 2993 2997 3001 3006 3011 3015 3019 3022 3024 3027 3029 3030 3031 3032 3033 3034 3034 3035 3034 3034 3032 3031 3028 3025 3023 3019 3015 3010 3005 3001 2997 2995 2990 2985 2980 2976 2973 2969 2965 2961 2958
2978 2982 2987 2993 2998 3002 3006 3010 3013 3016 3019 3020 3022 3023 3024 3025 3025 3026 3026 3026 3026 3025 3023 3021 3018 3015 3011 3007 3003 2999 2994 2990 2987 2984 2981 2978 2974 2970 2965 2961 2956 2951 2946
2968 2975 2982 2987 2992 2997 3001 3005 3007 3009 3011 3013 3014 3015 3016 3016 3017 3018 3018 3018 3018 3017 3014 3011 3008 3004 3000 2996 2993 2989 2984 2981 2977 2975 2971 2968 2964 2961 2956 2952 2947 2943 2939
2965 2971 2977 2983 2988 2992 2995 2998 3000 3002 3003 3005 3006 3007 3009 3010 3011 3011 3011 3010 3009 3007 3005 3002 2999 2996 2992 2988 2983 2979 2976 2972 2968 2965 2961 2958 2955 2952 2949 2945 2941 2936 2932
2962 2968 2973 2978 2983 2987 2989 2991 2993 2994 2996 2997 2999 3001 3002 3003 3003 3003 3003 3002 3000 2998 2995 2992 2989 2986 2983 2979 2975 2971 2967 2963 2960 2957 2954 2952 2950 2946 2942 2937 2934 2930 2926
2959 2965 2970 2974 2978 2980 2982 2984 2985 2987 2990 2991 2993 2994 2995 2995 2996 2995 2994 2993 2990 2988 2986 2983 2980 2977 2974 2970 2966 2963 2960 2957 2955 2951 2949 2945 2942 2938 2936 2932 2929 2925 2920
2955 2960 2964 2968 2972 2974 2976 2978 2980 2982 2983 2985 2986 2987 2987 2988 2988 2988 2986 2984 2982 2980 2977 2974 2971 2968 2965 2962 2959 2957 2953 2950 2947 2943 2941 2938 2935 2932 2929 2926 2922 2919 2915